This demonstration page uses our WeatherBlox Daily Observations layout. Learn more.

Left ArrowRight Arrow

39.95238, -75.16362

Hourly Observations for September 15, 2019

Temp ( °F °C ) Dew Point ( °F °C ) Humidity (%) Winds ( mph kmh ) Pressure ( in mb ) Visibility ( mi km ) Precip ( " mm )
12:33 am 00:33 Cloudy with Light Rain 74 23.3 68 20 82 82 W 6 9 30.17 1022 9 14 0.00 0.00
12:54 am 00:54 Cloudy with Rain 72 22.2 69 20.6 91 91 WSW 13 20 30.17 1022 7 11 0.05 1.27
12:58 am 00:58 Cloudy with Heavy Rain 72 22.2 69 20.6 91 91 WSW 13 20 30.17 1022 5 8 0.03 0.76
1:15 am 01:15 Cloudy with Light Rain 71 21.7 69 20.6 94 94 WSW 6 9 30.17 1022 10 16 0.09 2.29
1:54 am 01:54 Cloudy 72 22.2 69 20.6 91 91 SW 6 9 30.16 1022 10 16 0.09 2.29
2:29 am 02:29 Cloudy 72 22.2 69 20.6 91 91 Calm 30.16 1021 10 16 0.00 0.00
2:54 am 02:54 Cloudy 72 22.2 69 20.6 91 91 S 3 6 30.15 1021 10 16 0.00 0.00
3:29 am 03:29 Cloudy with Light Rain 71 21.7 69 20.6 94 94 S 6 9 30.15 1021 6 10 0.00 0.00
3:54 am 03:54 Cloudy with Mist and Fog 71 21.7 69 20.6 94 94 SSW 5 7 30.15 1021 6 10 0.00 0.00
4:04 am 04:04 Cloudy 71 21.7 69 20.6 94 94 SW 5 7 30.15 1021 10 16 0.00 0.00
4:54 am 04:54 Mostly Cloudy 71 21.7 69 20.6 94 94 Calm 30.15 1021 10 16 0.00 0.00
5:54 am 05:54 Cloudy 71 21.7 69 20.6 94 94 NNW 6 9 30.15 1021 10 16 0.00 0.00
6:32 am 06:32 Mostly Cloudy 71 21.7 69 20.6 94 94 Calm 30.16 1021 10 16 0.00 0.00
6:47 am 06:47 Mostly Cloudy 71 21.7 69 20.6 94 94 N 5 7 30.16 1021 10 16 0.00 0.00
6:54 am 06:54 Mostly Cloudy 71 21.7 69 20.6 94 94 N 5 7 30.16 1021 10 16 0.00 0.00
7:29 am 07:29 Mostly Cloudy 71 21.7 68 20 90 90 N 6 9 30.16 1021 10 16 0.00 0.00
7:54 am 07:54 Mostly Cloudy 71 21.7 68 20 90 90 NNW 7 11 30.16 1021 10 16 0.00 0.00
8:54 am 08:54 Mostly Cloudy 72 22.2 66 18.9 82 82 NNE 7 11 30.17 1022 10 16 0.00 0.00
9:54 am 09:54 Mostly Cloudy 75 23.9 65 18.3 71 71 N 8 13 30.18 1022 10 16 0.00 0.00
10:54 am 10:54 Mostly Cloudy 75 23.9 64 17.8 69 69 NNE 5 7 30.17 1022 10 16 0.00 0.00
11:54 am 11:54 Partly Cloudy 77 25 61 16.1 58 58 NNE 7 11 30.16 1022 10 16 0.00 0.00
12:54 pm 12:54 Partly Cloudy 80 26.7 61 16.1 52 52 VRB 5 7 30.14 1021 10 16 0.00 0.00
1:54 pm 13:54 Mostly Sunny 81 27.2 57 13.9 44 44 VRB 3 6 30.12 1020 10 16 0.00 0.00
2:54 pm 14:54 Mostly Sunny 83 28.3 55 12.8 38 38 NW 7 11 30.10 1019 10 16 0.00 0.00
3:54 pm 15:54 Mostly Sunny 84 28.9 54 12.2 36 36 NNW 8 13 30.09 1019 10 16 0.00 0.00
4:54 pm 16:54 Mostly Sunny 84 28.9 51 10.6 32 32 WNW 8 13 30.09 1019 10 16 0.00 0.00
5:54 pm 17:54 Mostly Sunny 83 28.3 50 10 32 32 NW 8 13 30.09 1019 10 16 0.00 0.00
6:54 pm 18:54 Mostly Sunny 80 26.7 52 11.1 38 38 NNW 7 11 30.09 1019 10 16 0.00 0.00
7:54 pm 19:54 Mostly Clear 79 26.1 52 11.1 39 39 NNW 6 9 30.09 1019 10 16 0.00 0.00
8:54 pm 20:54 Mostly Clear 75 23.9 54 12.2 48 48 NNW 5 7 30.09 1019 10 16 0.00 0.00
9:54 pm 21:54 Partly Cloudy 73 22.8 55 12.8 53 53 Calm 30.09 1019 10 16 0.00 0.00
10:54 pm 22:54 Mostly Cloudy 72 22.2 57 13.9 59 59 Calm 30.09 1019 10 16 0.00 0.00
11:54 pm 23:54 Mostly Cloudy 69 20.6 62 16.7 78 78 S 3 6 30.09 1019 10 16 0.00 0.00

Powered by AerisWeather